﻿測定場所 (Monitoring sites),日付 (Measurement date),時間 (Measurement time),線量率 最大値 (max) μGy/h,線量率 最小値 (min) μGy/h,線量率 平均値 (average) μGy/h,
江戸川 (Edogawa),2015-08-09,23:01～24:00,0.0683,0.0629,0.0660,
江戸川 (Edogawa),2015-08-09,22:01～23:00,0.0698,0.0625,0.0664,
江戸川 (Edogawa),2015-08-09,21:01～22:00,0.0708,0.0616,0.0662,
江戸川 (Edogawa),2015-08-09,20:01～21:00,0.0695,0.0626,0.0662,
江戸川 (Edogawa),2015-08-09,19:01～20:00,0.0694,0.0633,0.0663,
江戸川 (Edogawa),2015-08-09,18:01～19:00,0.0710,0.0619,0.0665,
江戸川 (Edogawa),2015-08-09,17:01～18:00,0.0688,0.0627,0.0656,
江戸川 (Edogawa),2015-08-09,16:01～17:00,0.0694,0.0628,0.0658,
江戸川 (Edogawa),2015-08-09,15:01～16:00,0.0690,0.0626,0.0661,
江戸川 (Edogawa),2015-08-09,14:01～15:00,0.0700,0.0620,0.0659,
江戸川 (Edogawa),2015-08-09,13:01～14:00,0.0694,0.0619,0.0663,
江戸川 (Edogawa),2015-08-09,12:01～13:00,0.0709,0.0629,0.0666,
江戸川 (Edogawa),2015-08-09,11:01～12:00,0.0736,0.0631,0.0663,
江戸川 (Edogawa),2015-08-09,10:01～11:00,0.0703,0.0631,0.0665,
江戸川 (Edogawa),2015-08-09,09:01～10:00,0.0698,0.0615,0.0662,
江戸川 (Edogawa),2015-08-09,08:01～09:00,0.0711,0.0628,0.0663,
江戸川 (Edogawa),2015-08-09,07:01～08:00,0.0698,0.0624,0.0667,
江戸川 (Edogawa),2015-08-09,06:01～07:00,0.0702,0.0623,0.0666,
江戸川 (Edogawa),2015-08-09,05:01～06:00,0.0698,0.0622,0.0664,
江戸川 (Edogawa),2015-08-09,04:01～05:00,0.0700,0.0624,0.0667,
江戸川 (Edogawa),2015-08-09,03:01～04:00,0.0709,0.0621,0.0664,
江戸川 (Edogawa),2015-08-09,02:01～03:00,0.0702,0.0621,0.0665,
江戸川 (Edogawa),2015-08-09,01:01～02:00,0.0693,0.0635,0.0664,
江戸川 (Edogawa),2015-08-09,00:01～01:00,0.0705,0.0629,0.0662,
江戸川 (Edogawa),2015-08-08,23:01～24:00,0.0697,0.0620,0.0659,
江戸川 (Edogawa),2015-08-08,22:01～23:00,0.0702,0.0608,0.0660,
江戸川 (Edogawa),2015-08-08,21:01～22:00,0.0700,0.0633,0.0662,
江戸川 (Edogawa),2015-08-08,20:01～21:00,0.0697,0.0634,0.0661,
江戸川 (Edogawa),2015-08-08,19:01～20:00,0.0719,0.0630,0.0663,
江戸川 (Edogawa),2015-08-08,18:01～19:00,0.0699,0.0636,0.0664,
江戸川 (Edogawa),2015-08-08,17:01～18:00,0.0699,0.0627,0.0659,
江戸川 (Edogawa),2015-08-08,16:01～17:00,0.0707,0.0632,0.0662,
江戸川 (Edogawa),2015-08-08,15:01～16:00,0.0694,0.0635,0.0665,
江戸川 (Edogawa),2015-08-08,14:01～15:00,0.0712,0.0631,0.0665,
江戸川 (Edogawa),2015-08-08,13:01～14:00,0.0703,0.0637,0.0665,
江戸川 (Edogawa),2015-08-08,12:01～13:00,0.0702,0.0620,0.0669,
江戸川 (Edogawa),2015-08-08,11:01～12:00,0.0690,0.0626,0.0663,
江戸川 (Edogawa),2015-08-08,10:01～11:00,0.0701,0.0620,0.0661,
江戸川 (Edogawa),2015-08-08,09:01～10:00,0.0700,0.0627,0.0661,
江戸川 (Edogawa),2015-08-08,08:01～09:00,0.0698,0.0629,0.0666,
江戸川 (Edogawa),2015-08-08,07:01～08:00,0.0708,0.0628,0.0662,
江戸川 (Edogawa),2015-08-08,06:01～07:00,0.0695,0.0627,0.0659,
江戸川 (Edogawa),2015-08-08,05:01～06:00,0.0695,0.0623,0.0662,
江戸川 (Edogawa),2015-08-08,04:01～05:00,0.0691,0.0634,0.0662,
江戸川 (Edogawa),2015-08-08,03:01～04:00,0.0697,0.0629,0.0666,
江戸川 (Edogawa),2015-08-08,02:01～03:00,0.0699,0.0639,0.0666,
江戸川 (Edogawa),2015-08-08,01:01～02:00,0.0690,0.0633,0.0666,
江戸川 (Edogawa),2015-08-08,00:01～01:00,0.0709,0.0637,0.0672,
江戸川 (Edogawa),2015-08-07,23:01～24:00,0.0712,0.0638,0.0667,
江戸川 (Edogawa),2015-08-07,22:01～23:00,0.0703,0.0632,0.0667,
江戸川 (Edogawa),2015-08-07,21:01～22:00,0.0698,0.0623,0.0665,
江戸川 (Edogawa),2015-08-07,20:01～21:00,0.0703,0.0624,0.0664,
江戸川 (Edogawa),2015-08-07,19:01～20:00,0.0710,0.0624,0.0666,
江戸川 (Edogawa),2015-08-07,18:01～19:00,0.0693,0.0639,0.0662,
江戸川 (Edogawa),2015-08-07,17:01～18:00,0.0689,0.0630,0.0661,
江戸川 (Edogawa),2015-08-07,16:01～17:00,0.0703,0.0624,0.0668,
江戸川 (Edogawa),2015-08-07,15:01～16:00,0.0705,0.0632,0.0671,
江戸川 (Edogawa),2015-08-07,14:01～15:00,0.0712,0.0639,0.0670,
江戸川 (Edogawa),2015-08-07,13:01～14:00,0.0723,0.0641,0.0674,
江戸川 (Edogawa),2015-08-07,12:01～13:00,0.0719,0.0628,0.0670,
江戸川 (Edogawa),2015-08-07,11:01～12:00,0.0705,0.0629,0.0671,
江戸川 (Edogawa),2015-08-07,10:01～11:00,0.0714,0.0640,0.0673,
江戸川 (Edogawa),2015-08-07,09:01～10:00,0.0703,0.0628,0.0671,
江戸川 (Edogawa),2015-08-07,08:01～09:00,0.0712,0.0640,0.0680,
江戸川 (Edogawa),2015-08-07,07:01～08:00,0.0717,0.0634,0.0673,
江戸川 (Edogawa),2015-08-07,06:01～07:00,0.0709,0.0627,0.0668,
江戸川 (Edogawa),2015-08-07,05:01～06:00,0.0716,0.0631,0.0666,
江戸川 (Edogawa),2015-08-07,04:01～05:00,0.0707,0.0624,0.0663,
江戸川 (Edogawa),2015-08-07,03:01～04:00,0.0699,0.0634,0.0663,
江戸川 (Edogawa),2015-08-07,02:01～03:00,0.0717,0.0627,0.0666,
江戸川 (Edogawa),2015-08-07,01:01～02:00,0.0699,0.0629,0.0661,
江戸川 (Edogawa),2015-08-07,00:01～01:00,0.0707,0.0616,0.0659,
江戸川 (Edogawa),2015-08-06,23:01～24:00,0.0677,0.0621,0.0654,
江戸川 (Edogawa),2015-08-06,22:01～23:00,0.0698,0.0627,0.0664,
江戸川 (Edogawa),2015-08-06,21:01～22:00,0.0691,0.0619,0.0656,
江戸川 (Edogawa),2015-08-06,20:01～21:00,0.0695,0.0619,0.0653,
江戸川 (Edogawa),2015-08-06,19:01～20:00,0.0688,0.0619,0.0660,
江戸川 (Edogawa),2015-08-06,18:01～19:00,0.0689,0.0624,0.0658,
江戸川 (Edogawa),2015-08-06,17:01～18:00,0.0698,0.0630,0.0659,
江戸川 (Edogawa),2015-08-06,16:01～17:00,0.0703,0.0629,0.0659,
江戸川 (Edogawa),2015-08-06,15:01～16:00,0.0693,0.0620,0.0659,
江戸川 (Edogawa),2015-08-06,14:01～15:00,0.0696,0.0621,0.0658,
江戸川 (Edogawa),2015-08-06,13:01～14:00,0.0690,0.0631,0.0658,
江戸川 (Edogawa),2015-08-06,12:01～13:00,0.0712,0.0623,0.0662,
江戸川 (Edogawa),2015-08-06,11:01～12:00,0.0716,0.0612,0.0662,
江戸川 (Edogawa),2015-08-06,10:01～11:00,0.0700,0.0621,0.0657,
江戸川 (Edogawa),2015-08-06,09:01～10:00,0.0689,0.0630,0.0655,
江戸川 (Edogawa),2015-08-06,08:01～09:00,0.0693,0.0619,0.0656,
江戸川 (Edogawa),2015-08-06,07:01～08:00,0.0690,0.0619,0.0653,
江戸川 (Edogawa),2015-08-06,06:01～07:00,0.0694,0.0619,0.0656,
江戸川 (Edogawa),2015-08-06,05:01～06:00,0.0688,0.0612,0.0656,
江戸川 (Edogawa),2015-08-06,04:01～05:00,0.0704,0.0618,0.0656,
江戸川 (Edogawa),2015-08-06,03:01～04:00,0.0694,0.0622,0.0658,
江戸川 (Edogawa),2015-08-06,02:01～03:00,0.0693,0.0632,0.0657,
江戸川 (Edogawa),2015-08-06,01:01～02:00,0.0698,0.0618,0.0656,
江戸川 (Edogawa),2015-08-06,00:01～01:00,0.0689,0.0620,0.0653,
江戸川 (Edogawa),2015-08-05,23:01～24:00,0.0692,0.0620,0.0657,
江戸川 (Edogawa),2015-08-05,22:01～23:00,0.0693,0.0610,0.0657,
江戸川 (Edogawa),2015-08-05,21:01～22:00,0.0695,0.0608,0.0657,
江戸川 (Edogawa),2015-08-05,20:01～21:00,0.0685,0.0628,0.0657,
江戸川 (Edogawa),2015-08-05,19:01～20:00,0.0730,0.0599,0.0658,
江戸川 (Edogawa),2015-08-05,18:01～19:00,0.0710,0.0617,0.0658,
江戸川 (Edogawa),2015-08-05,17:01～18:00,0.0699,0.0620,0.0656,
江戸川 (Edogawa),2015-08-05,16:01～17:00,0.0701,0.0617,0.0657,
江戸川 (Edogawa),2015-08-05,15:01～16:00,0.0691,0.0618,0.0660,
江戸川 (Edogawa),2015-08-05,14:01～15:00,0.0695,0.0629,0.0657,
江戸川 (Edogawa),2015-08-05,13:01～14:00,0.0694,0.0620,0.0658,
江戸川 (Edogawa),2015-08-05,12:01～13:00,0.0690,0.0619,0.0659,
江戸川 (Edogawa),2015-08-05,11:01～12:00,0.0694,0.0628,0.0658,
江戸川 (Edogawa),2015-08-05,10:01～11:00,0.0693,0.0614,0.0658,
江戸川 (Edogawa),2015-08-05,09:01～10:00,0.0688,0.0616,0.0657,
江戸川 (Edogawa),2015-08-05,08:01～09:00,0.0691,0.0629,0.0657,
江戸川 (Edogawa),2015-08-05,07:01～08:00,0.0685,0.0623,0.0657,
江戸川 (Edogawa),2015-08-05,06:01～07:00,0.0695,0.0620,0.0656,
江戸川 (Edogawa),2015-08-05,05:01～06:00,0.0693,0.0628,0.0657,
江戸川 (Edogawa),2015-08-05,04:01～05:00,0.0686,0.0628,0.0657,
江戸川 (Edogawa),2015-08-05,03:01～04:00,0.0681,0.0599,0.0655,
江戸川 (Edogawa),2015-08-05,02:01～03:00,0.0692,0.0608,0.0658,
江戸川 (Edogawa),2015-08-05,01:01～02:00,0.0703,0.0617,0.0656,
江戸川 (Edogawa),2015-08-05,00:01～01:00,0.0694,0.0629,0.0654,
江戸川 (Edogawa),2015-08-04,23:01～24:00,0.0696,0.0615,0.0655,
江戸川 (Edogawa),2015-08-04,22:01～23:00,0.0694,0.0618,0.0652,
江戸川 (Edogawa),2015-08-04,21:01～22:00,0.0691,0.0620,0.0654,
江戸川 (Edogawa),2015-08-04,20:01～21:00,0.0687,0.0619,0.0656,
江戸川 (Edogawa),2015-08-04,19:01～20:00,0.0686,0.0620,0.0653,
江戸川 (Edogawa),2015-08-04,18:01～19:00,0.0688,0.0613,0.0655,
江戸川 (Edogawa),2015-08-04,17:01～18:00,0.0708,0.0624,0.0659,
江戸川 (Edogawa),2015-08-04,16:01～17:00,0.0686,0.0628,0.0659,
江戸川 (Edogawa),2015-08-04,15:01～16:00,0.0705,0.0636,0.0662,
江戸川 (Edogawa),2015-08-04,14:01～15:00,0.0693,0.0622,0.0658,
江戸川 (Edogawa),2015-08-04,13:01～14:00,0.0687,0.0625,0.0663,
江戸川 (Edogawa),2015-08-04,12:01～13:00,0.0702,0.0629,0.0665,
江戸川 (Edogawa),2015-08-04,11:01～12:00,0.0712,0.0632,0.0664,
江戸川 (Edogawa),2015-08-04,10:01～11:00,0.0704,0.0640,0.0665,
江戸川 (Edogawa),2015-08-04,09:01～10:00,0.0696,0.0606,0.0664,
江戸川 (Edogawa),2015-08-04,08:01～09:00,0.0708,0.0632,0.0664,
江戸川 (Edogawa),2015-08-04,07:01～08:00,0.0700,0.0623,0.0656,
江戸川 (Edogawa),2015-08-04,06:01～07:00,0.0688,0.0624,0.0659,
江戸川 (Edogawa),2015-08-04,05:01～06:00,0.0704,0.0625,0.0659,
江戸川 (Edogawa),2015-08-04,04:01～05:00,0.0704,0.0625,0.0658,
江戸川 (Edogawa),2015-08-04,03:01～04:00,0.0686,0.0624,0.0655,
江戸川 (Edogawa),2015-08-04,02:01～03:00,0.0698,0.0611,0.0656,
江戸川 (Edogawa),2015-08-04,01:01～02:00,0.0719,0.0621,0.0660,
江戸川 (Edogawa),2015-08-04,00:01～01:00,0.0697,0.0629,0.0658,
江戸川 (Edogawa),2015-08-03,23:01～24:00,0.0690,0.0617,0.0655,
江戸川 (Edogawa),2015-08-03,22:01～23:00,0.0696,0.0625,0.0659,
江戸川 (Edogawa),2015-08-03,21:01～22:00,0.0696,0.0619,0.0660,
江戸川 (Edogawa),2015-08-03,20:01～21:00,0.0694,0.0619,0.0659,
江戸川 (Edogawa),2015-08-03,19:01～20:00,0.0689,0.0625,0.0659,
江戸川 (Edogawa),2015-08-03,18:01～19:00,0.0699,0.0615,0.0657,
江戸川 (Edogawa),2015-08-03,17:01～18:00,0.0700,0.0613,0.0659,
江戸川 (Edogawa),2015-08-03,16:01～17:00,0.0693,0.0624,0.0657,
江戸川 (Edogawa),2015-08-03,15:01～16:00,0.0698,0.0618,0.0660,
江戸川 (Edogawa),2015-08-03,14:01～15:00,0.0702,0.0628,0.0664,
江戸川 (Edogawa),2015-08-03,13:01～14:00,0.0692,0.0635,0.0663,
江戸川 (Edogawa),2015-08-03,12:01～13:00,0.0691,0.0625,0.0659,
江戸川 (Edogawa),2015-08-03,11:01～12:00,0.0696,0.0628,0.0663,
江戸川 (Edogawa),2015-08-03,10:01～11:00,0.0693,0.0640,0.0668,
江戸川 (Edogawa),2015-08-03,09:01～10:00,0.0687,0.0620,0.0661,
江戸川 (Edogawa),2015-08-03,08:01～09:00,0.0693,0.0618,0.0665,
江戸川 (Edogawa),2015-08-03,07:01～08:00,0.0699,0.0622,0.0661,
江戸川 (Edogawa),2015-08-03,06:01～07:00,0.0692,0.0622,0.0658,
江戸川 (Edogawa),2015-08-03,05:01～06:00,0.0689,0.0623,0.0655,
江戸川 (Edogawa),2015-08-03,04:01～05:00,0.0682,0.0620,0.0658,
江戸川 (Edogawa),2015-08-03,03:01～04:00,0.0703,0.0622,0.0663,
江戸川 (Edogawa),2015-08-03,02:01～03:00,0.0695,0.0622,0.0658,
江戸川 (Edogawa),2015-08-03,01:01～02:00,0.0701,0.0628,0.0660,
江戸川 (Edogawa),2015-08-03,00:01～01:00,0.0708,0.0624,0.0661,
